Location: Walmer Castle
(51.2000°N, 1.4000°E)
Time: 22:34:50
(UTC+00:00)

Daily predictions for brighter satellites

Satellite Brightness Start Highest point End
(mag) Time Altitude Azimuth Time Altitude Azimuth Time Altitude Azimuth
Meteor 2-9 Rocket 4.3 18:11:19 10° S 18:17:09 88° E 18:22:54 10° NNE
Cosmos 1300 Rocket 4.0 18:16:28 10° SSE 18:20:34 39° E 18:24:43 10° NNE
CENTAUR R/B 3.2 18:16:07 10° NW 18:23:57 76° NE 18:32:43 10° SE
Sich 1 Rocket 3.6 18:20:21 10° S 18:24:51 67° E 18:29:24 10° NNE
NOSS 2-2 (E) 3.2 18:21:32 10° SW 18:25:06 89° NW 18:29:18 10° NE
Cosmos 1833 Rocket 3.9 18:20:40 10° NNW 18:25:20 25° NE 18:29:58 10° E
Cosmos 2298 Rocket 4.3 18:21:50 10° S 18:26:53 46° ESE 18:31:58 10° NE
Cosmos 1975 3.7 18:24:06 10° SSW 18:28:06 56° WNW 18:32:08 10° N
Resurs 01 Rocket 3.7 18:27:07 10° ENE 18:28:16 11° NE 18:29:25 10° NE
Iridium 4 Rocket 4.0 18:24:05 10° S 18:29:19 72° W 18:35:02 10° N
CSL-04 Debris 4.1 18:26:08 10° SSE 18:31:29 75° ENE 18:36:53 10° NNW
Cosmos 1025 Rocket 3.0 18:28:55 10° N 18:33:18 66° ENE 18:37:40 10° SSE
Helios 1A Rocket 4.3 18:29:22 10° S 18:33:19 45° W 18:37:19 10° NNW
CSL-04 Rocket 3.7 18:28:00 10° SSE 18:33:27 74° ENE 18:39:00 10° NNW
NOSS 2-2 (D) 3.1 18:31:25 10° SW 18:34:57 90° ESE 18:39:05 10° NE
ATLAS 2AS CENTAUR R/B 3.9 18:28:47 10° SSE 18:35:01 26° ESE 18:41:13 10° ENE
Cosmos 1937 Rocket 4.1 18:29:52 10° SW 18:35:03 62° WNW 18:40:13 10° NNE
Okean 2 Rocket 3.2 18:30:42 10° S 18:35:04 55° E 18:39:27 10° NNE
YAOGAN 1 2.8 18:31:41 10° S 18:36:01 77° WSW 18:40:22 10° NNW
ATLAS 3B R/B 3.3 18:29:47 10° NW 18:36:15 44° NNE 18:42:35 11° E
SKYMED 2 4.2 18:32:59 10° N 18:37:18 62° WNW 18:41:35 10° SSW
SWAS 4.4 18:34:46 10° NNW 18:39:05 80° NE 18:43:22 10° SE
Abrixas rocket 2.9 18:37:12 10° W 18:39:51 35° SSW 18:42:11 12° SE
CREW DRAGON DEMO-1 DEB 3.4 18:38:43 10° W 18:41:41 50° SSW 18:44:16 13° SE
Cosmos 1513 Rocket 4.4 18:36:31 10° S 18:42:41 70° E 18:48:47 10° NNE
Cosmos 1536 Rocket 3.6 18:38:38 10° N 18:43:05 63° ENE 18:47:31 10° SSE
Cosmos 1125 Rocket 3.9 18:42:33 10° S 18:47:32 43° ESE 18:52:33 10° NE
SJ-6B 3.6 18:48:31 13° SE 18:51:20 30° ENE 18:54:41 10° N
USA 238 DEB 4.3 18:46:11 10° NW 18:53:18 65° SW 19:00:41 10° SSE
USA 238 4.3 18:46:18 10° NW 18:53:24 66° SW 19:00:48 10° SSE
CZ-4 R/B 2.8 18:49:40 10° S 18:53:41 43° W 18:57:40 10° NNW
Cosmos 2150 Rocket 4.0 18:49:02 10° SSW 18:54:24 69° ESE 18:59:51 10° NNE
SJ-11-01 4.4 18:49:57 10° SSE 18:54:41 84° WSW 18:59:24 10° NNW
Cosmos 1674 2.8 18:51:41 10° N 18:55:30 56° ENE 18:59:16 10° SSE
CZ-2C R/B 3.5 18:50:24 10° S 18:55:48 72° WSW 19:01:31 10° NNW
Cosmos 2026 Rocket 4.5 18:50:00 10° N 18:56:01 41° ENE 19:01:59 10° SE
Cosmos 1464 Rocket 3.9 18:49:54 10° S 18:56:02 82° E 19:02:17 10° NNE
Cosmos 1092 Rocket 4.2 18:50:18 10° N 18:56:19 51° ENE 19:02:20 10° SSE
Okean-O 4.3 18:53:29 10° SSW 18:57:35 37° W 19:01:44 10° NNW
Cosmos 2285 Rocket 4.2 18:52:20 10° S 18:58:17 46° ESE 19:04:20 10° NNE
MOS 1 Rocket 3.0 18:57:52 10° NNE 19:02:14 61° E 19:06:28 10° S
FREGAT/IRIS 3.1 19:04:41 28° E 19:05:01 29° ENE 19:07:21 10° N
ARGOS 3.2 19:05:59 10° SSE 19:11:21 86° WSW 19:16:47 10° NNW
CZ-2C R/B 3.1 19:07:06 10° NNE 19:12:23 42° E 19:17:41 10° SSE
Cosmos 1340 Rocket 3.8 19:15:11 25° E 19:15:19 25° E 19:18:38 10° NE
Cosmos 1733 3.7 19:13:48 12° SSE 19:16:58 37° E 19:20:31 10° NNE
Cosmos 2151 Rocket 3.7 19:13:15 10° SSW 19:17:44 80° W 19:22:17 10° N
Lacrosse 5 rocket 2.4 19:13:46 10° WNW 19:17:54 40° N 19:20:43 19° ENE
Cosmos 2082 Rocket 3.1 19:13:33 10° NNW 19:18:36 32° NE 19:21:17 22° E
MOS 1 4.3 19:13:10 10° SSE 19:18:48 66° ENE 19:24:28 10° NNW
NOSS 2-2 (C) 4.4 19:16:24 10° WSW 19:19:51 43° NW 19:23:58 10° NE
BREEZE-M DEB (TANK) 4.2 19:19:04 10° W 19:22:02 31° SSW 19:27:36 14° SE
DMSP B5D2-2 4.4 19:17:13 10° NNE 19:22:15 42° E 19:27:14 10° SSE
BREEZE-M R/B 4.1 19:12:53 10° WSW 19:22:57 49° SSE 19:24:25 30° ESE
Cosmos 494 Rocket 4.4 19:18:27 10° NNW 19:23:40 64° WSW 19:28:52 10° S
Meteor 1-15 Rocket 4.2 19:22:47 10° S 19:28:27 82° E 19:34:16 10° NNE
Cosmos 1805 3.1 19:24:56 10° S 19:28:49 70° E 19:32:44 10° NNE
OBJECT-B 1.2 19:28:48 40° E 19:29:00 40° ENE 19:32:05 10° N
Ariane Rocket 3.0 19:28:07 10° SSE 19:33:12 89° WSW 19:38:20 10° NNW
SL-08 RB Rocket 3.9 19:28:42 10° S 19:33:16 73° WSW 19:37:49 10° NNW
H-2A R/B 3.2 19:30:02 10° S 19:34:48 43° W 19:39:44 10° NNW
Cosmos 1269 Rocket 4.0 19:30:19 10° NNW 19:35:40 85° WSW 19:39:33 19° SSE
Cosmos 1626 1.9 19:37:05 10° N 19:40:49 77° ENE 19:42:02 40° SSE
Okean 1-7 Rocket 4.1 19:36:43 10° N 19:41:04 41° ENE 19:41:50 38° E
Terra 4.0 19:42:51 11° NE 19:42:54 11° NE 19:44:09 10° NE
Cosmos 2263 Rocket 4.4 19:39:12 10° W 19:43:40 24° NW 19:48:11 10° NNE
MetOp-A 4.1 19:40:20 16° SSE 19:44:45 89° WSW 19:50:09 10° NNW
USA 186 2.7 19:42:34 18° S 19:44:46 48° W 19:47:59 10° NNW
COSMOS 2406 3.1 19:39:10 10° NNW 19:44:54 85° ENE 19:47:55 29° SSE
Cosmos 1455 Rocket 4.1 19:47:18 28° ENE 19:47:18 28° ENE 19:50:02 10° NNE
Cosmos 1844 Rocket 3.1 19:41:47 10° SW 19:47:18 63° NW 19:52:53 10° NNE
ISS -3.8 19:44:04 10° W 19:47:28 81° N 19:47:46 70° ENE
ATLAS CENTAUR R/B 3.8 19:48:25 10° N 19:49:19 11° N 19:50:13 10° NNE
Cosmos 2278 Rocket 2.6 19:51:32 37° ESE 19:51:32 37° ESE 19:56:39 10° NE
Lacrosse 4 Rocket 1.7 19:48:32 10° NNW 19:52:30 47° NE 19:52:52 46° ENE
Cosmos 1844 4.0 19:49:19 10° SW 19:54:58 67° WNW 20:00:36 10° NNE
Meteor 2-5 Rocket 4.0 19:49:31 10° NNW 19:55:09 68° W 20:00:47 10° S
Meteor 1-22 Rocket 4.3 19:50:27 10° S 19:56:20 73° E 20:02:26 10° NNE
Meteor 1-24 Rocket 3.8 19:51:56 10° NNW 19:57:30 81° W 20:01:37 20° S
Cosmos 909 Rocket 4.2 19:50:56 10° NW 19:57:33 60° NE 19:59:54 38° ESE
Exosat Rocket 3.6 19:54:06 10° SSW 19:59:20 75° WNW 20:04:26 10° NNE
Cosmos 2266 Rocket 4.4 19:53:58 10° N 19:59:36 39° ENE 20:00:34 37° E
SL-14 R/B 3.4 19:56:49 10° NNW 20:00:45 74° W 20:01:55 44° S
Okean 1 Rocket 3.6 19:57:02 10° SSW 20:01:29 62° WNW 20:05:57 10° N
Meteor 2-19 Rocket 4.4 19:55:34 10° N 20:01:39 62° ENE 20:03:47 39° SE
NOSS 3-4 (A) 3.3 19:56:26 10° SSW 20:02:20 71° SE 20:08:42 10° NE
NOSS 3-4 (C) 3.3 19:56:33 10° SSW 20:02:26 70° SE 20:08:48 10° NE
Resurs 01 Rocket 1.6 20:03:26 59° ESE 20:03:54 63° ENE 20:08:19 10° N
Cosmos 1833 Rocket 2.6 20:04:17 10° NNW 20:09:59 85° WSW 20:11:54 44° SSE
Cosmos 1470 4.4 20:12:29 24° NNE 20:12:29 24° NNE 20:14:12 10° NNE
Cosmos 1766 4.1 20:06:49 10° SSW 20:10:39 52° WNW 20:14:34 10° N
CZ-2C R/B 4.2 20:06:36 10° NNE 20:09:58 43° NE 20:09:58 43° NE
Cosmos 2251 Rocket 3.5 20:07:32 10° NNW 20:12:54 64° ENE 20:13:44 56° ESE
CENTAUR R/B 4.2 20:07:07 10° NW 20:14:30 40° WSW 20:22:00 12° S
ERS-1 Rocket 4.1 20:17:40 28° NE 20:17:40 28° NE 20:21:27 10° N
IGS 5A 4.4 20:18:58 37° NNE 20:18:58 37° NNE 20:21:57 10° N
ARIANE 5 R/B 3.0 20:20:05 48° NE 20:20:05 48° NE 20:23:41 10° N
SPOT 3 Rocket 3.6 20:20:50 42° S 20:22:36 72° WSW 20:27:46 10° NNW
Cosmos 1634 Rocket 4.2 20:18:43 10° SSW 20:24:51 70° WNW 20:31:05 10° N
ATLAS 2AS CENTAUR R/B 2.9 20:17:11 10° SW 20:25:10 85° SE 20:33:02 10° NE
Resurs 1-3 4.2 20:26:18 44° SSW 20:27:18 54° W 20:31:39 10° NNW
ATLAS 3B R/B 2.9 20:20:33 10° NW 20:27:21 69° SW 20:29:50 42° SSE
Landsat 7 4.1 20:27:59 54° NE 20:27:59 54° NE 20:32:13 10° N
Cosmos 1892 Rocket 4.1 20:23:33 10° NNW 20:27:49 56° W 20:28:36 48° SW
Meteor 1-21 Rocket 4.2 20:27:04 10° N 20:32:51 67° ENE 20:33:15 65° E
SPOT 5 4.0 20:33:48 34° NE 20:33:48 34° NE 20:38:01 10° N
Meteor 2-10 4.5 20:34:18 48° NE 20:34:18 48° NE 20:38:29 10° NNE
Cosmos 1655 Rocket 3.9 20:30:06 10° N 20:36:25 85° E 20:37:50 57° SSE
Cosmos 1461 3.8 20:35:19 10° NW 20:39:30 47° NNE 20:39:30 47° NNE
Cosmos 1340 Rocket 4.4 20:50:43 30° W 20:51:38 34° WNW 20:55:20 10° N
CZ-2C R/B 4.1 20:47:32 10° N 20:52:38 39° WNW 20:57:47 10° SW
Lacrosse 5 rocket 2.4 20:53:03 10° WNW 20:56:20 48° NW 20:56:20 48° NW
MetOp-B 4.3 20:58:51 66° WSW 20:59:02 66° WSW 21:04:23 10° NNW
Cosmos 2098 Rocket 4.1 20:54:03 10° NNW 21:00:48 67° W 21:01:46 58° SW
Cosmos 2279 Rocket 4.4 20:57:30 24° SSW 21:01:22 60° WNW 21:07:36 10° N
OBJECT-B 3.8 21:01:59 15° W 21:01:59 15° W 21:03:32 10° NW
Cosmos 2082 Rocket 2.4 20:57:31 10° NW 21:03:03 59° WSW 21:03:08 59° WSW
Spot 2 Rocket 3.8 21:05:26 64° NW 21:05:26 64° NW 21:09:46 10° NNW
Meteor 2-21 4.4 21:03:52 10° N 21:09:42 75° NNE 21:09:42 75° NNE
Cosmos 1809 Rocket 4.4 21:08:12 10° NNW 21:14:13 83° NW 21:14:13 83° NW
Terra 3.3 21:21:44 31° N 21:21:44 31° N 21:24:21 10° N
Cosmos 1140 Rocket 4.4 21:17:49 10° NNW 21:21:18 42° N 21:21:18 42° N
Cosmos 407 Rocket 4.4 21:22:53 10° NNW 21:26:26 45° NNW 21:26:26 45° NNW
SPOT 1/Viking Rocket 4.3 21:29:22 48° WNW 21:29:22 48° WNW 21:33:27 10° NNW
ATLAS CENTAUR R/B 4.1 21:26:43 10° NNW 21:27:26 13° NNW 21:27:26 13° NNW
Lacrosse 4 Rocket 3.9 21:27:37 10° WNW 21:29:10 18° WNW 21:29:10 18° WNW
Cosmos 2278 Rocket 3.1 21:33:01 29° WSW 21:35:29 47° NW 21:40:59 10° NNE
Resurs 01 Rocket 4.0 21:41:01 18° W 21:41:01 18° W 21:43:52 10° NW
USA 229 DEB 4.5 21:41:39 10° NW 21:48:26 46° NNE 21:49:03 45° NE
USA 229 4.5 21:41:44 10° NW 21:48:32 46° NNE 21:49:09 45° NE
ATLAS 2AS CENTAUR R/B 4.0 22:09:25 10° W 22:16:57 43° NNW 22:24:16 10° NE
Cosmos 1943 Rocket 4.5 22:24:03 15° NNE 22:24:03 15° NNE 22:25:01 10° NNE
NOSS 3-1 (C) 4.3 22:31:35 10° NW 22:37:24 61° NNW 22:37:24 61° NNW
CZ-4C R/B 4.2 22:45:17 25° NNE 22:45:17 25° NNE 22:48:07 10° NE
COSMOS 2455 4.3 22:57:42 33° N 22:57:42 33° N 23:01:58 10° NNE
Cosmos 2297 Rocket 4.2 22:53:06 10° NNW 22:56:26 23° NNE 22:56:26 23° NNE
Cosmos 2369 Rocket 4.3 23:10:31 20° NNE 23:10:31 20° NNE 23:12:14 10° NNE
SL-16 R/B 4.3 23:50:37 24° NE 23:50:37 24° NE 23:55:04 10° N
